Regional Weather Roundup
Issued by NWS Goodland, KS

Home | Current Version | Previous Version | Text Only | Print | Product List | Glossary Off
Versions: 1 2 3 4 5 6 7 8 9 10 11 12 13 14 15 16 17 18 19 20 21 22 23 24 25 26 27 28 29 30 31 32 33 34 35 36 37 38 39 40 41 42 43 44 45 46 47 48 49 50

000
ASUS43 KGLD 061708
RWRGLD

GOODLAND FORECAST AREA HOURLY WEATHER ROUNDUP
NATIONAL WEATHER SERVICE GOODLAND KS
1100 AM MDT FRI MAY 06 2016

...OFFICIAL OBSERVATIONS...

CITY           SKY/WX    TMP DP  RH WIND       PRES   REMARKS
GOODLAND KS    CLOUDY    72  49  44 S15       29.97F
HILL CITY KS   MOSUNNY   77  52  41 S17G28    29.99F
IMPERIAL NEB   SUNNY     74  49  41 S14       29.95F
MCCOOK NEB     MOSUNNY   72  52  49 S15       29.96F
AKRON CO       CLOUDY    68  47  46 S7        29.97S
BURLINGTON CO  CLOUDY    80  31  16 S24       29.99S
LIMON CO       SUNNY     75  45  34 S10       30.01F
$$

...UNOFFICIAL OBSERVATIONS...

CITY           SKY/WX    TMP DP  RH WIND       PRES   REMARKS
COLBY KS       SUNNY     70  55  60 S10       29.99S
LENORA KS        N/A     73  32  22 MISG        N/A
NORTON KS      SUNNY     75  41  29 S18G25    29.98F
SHARON SPRINGS   N/A     75  51  42 SE13        N/A
KIT CARSON CO    N/A     74  44  33 MISG        N/A
YUMA CO          N/A     68  51  54 CALM        N/A
$$




USA.gov is the U.S. government's official web portal to all federal, state and local government web resources and services.